timestamp,surface_pressure_avg,surface_temp_avg,battery_voltage,lat,long
2018-01-17 00:00:00+00:00,320.9564,2.19,12.65,47.84626,-54.09684
2018-01-17 00:10:00+00:00,320.503,2.2,12.65,47.84626,-54.09684
2018-01-17 00:20:00+00:00,317.6546,2.16,12.73,47.84626,-54.09684
2018-01-17 00:30:00+00:00,320.953,2.1,12.73,47.84626,-54.09684
2018-01-17 00:40:00+00:00,319.9097,2.0,12.73,47.84626,-54.09684
2018-01-17 00:50:00+00:00,312.093,2.1,12.73,47.84626,-54.09684
2018-01-17 01:00:00+00:00,307.0963,2.0,12.65,47.84626,-54.09684
2018-01-17 01:10:00+00:00,310.5563,1.9,12.65,47.84626,-54.09684
2018-01-17 01:20:00+00:00,316.9313,1.9,12.65,47.84626,-54.09684
2018-01-17 01:30:00+00:00,299.618,1.8,12.65,47.84626,-54.09684
2018-01-17 01:40:00+00:00,290.2079,1.8,12.73,47.84626,-54.09684
2018-01-17 01:50:00+00:00,297.838,2.01,12.73,47.84626,-54.09684
2018-01-17 02:00:00+00:00,304.3597,2.19,12.65,47.84626,-54.09684
2018-01-17 02:10:00+00:00,292.3797,1.98,12.57,47.84626,-54.09684
2018-01-17 02:20:00+00:00,285.3231,2.18,12.65,47.84626,-54.09684
2018-01-17 02:30:00+00:00,281.1764,2.2,12.65,47.84626,-54.09684
2018-01-17 02:40:00+00:00,268.5431,2.19,12.65,47.84626,-54.09684
2018-01-17 02:50:00+00:00,253.0714,2.19,12.65,47.84626,-54.09684
2018-01-17 03:00:00+00:00,244.2314,2.2,12.65,47.84626,-54.09684
2018-01-17 03:10:00+00:00,240.7848,2.2,12.57,47.84626,-54.09684
2018-01-17 03:20:00+00:00,238.0564,2.2,12.65,47.84626,-54.09684
2018-01-17 03:30:00+00:00,233.6198,2.2,12.65,47.84626,-54.09684
2018-01-17 03:40:00+00:00,227.6497,2.2,12.65,47.84626,-54.09684
2018-01-17 03:50:00+00:00,224.6564,2.2,12.65,47.84626,-54.09684
2018-01-17 04:00:00+00:00,217.6265,2.2,12.65,47.84626,-54.09684
2018-01-17 04:10:00+00:00,208.4198,2.14,12.57,47.84626,-54.09684
2018-01-17 04:20:00+00:00,200.7865,2.05,12.65,47.84626,-54.09684
2018-01-17 04:30:00+00:00,200.5064,2.2,12.65,47.84626,-54.09684
2018-01-17 04:40:00+00:00,205.7348,2.2,12.65,47.84626,-54.09684
2018-01-17 04:50:00+00:00,199.5464,2.2,12.65,47.84626,-54.09684
2018-01-17 05:00:00+00:00,188.4265,2.1,12.65,47.84626,-54.09684
2018-01-17 05:10:00+00:00,193.3031,2.14,12.57,47.84626,-54.09684
2018-01-17 05:20:00+00:00,200.4131,2.19,12.65,47.84626,-54.09684
2018-01-17 05:30:00+00:00,197.5148,2.2,12.65,47.84626,-54.09684
2018-01-17 05:40:00+00:00,191.2231,2.2,12.65,47.84626,-54.09684
2018-01-17 05:50:00+00:00,194.3181,2.2,12.65,47.84626,-54.09684
2018-01-17 06:00:00+00:00,197.6182,2.2,12.65,47.84626,-54.09684
2018-01-17 06:10:00+00:00,188.4365,2.2,12.57,47.84626,-54.09684
2018-01-17 06:20:00+00:00,195.8131,2.12,12.65,47.84626,-54.09684
2018-01-17 06:30:00+00:00,213.1082,2.11,12.65,47.84626,-54.09684
2018-01-17 06:40:00+00:00,211.8464,2.17,12.65,47.84626,-54.09684
2018-01-17 06:50:00+00:00,211.6531,2.16,12.65,47.84626,-54.09684
2018-01-17 07:00:00+00:00,222.0098,2.16,12.57,47.84626,-54.09684
2018-01-17 07:10:00+00:00,225.1381,2.19,12.57,47.84626,-54.09684
2018-01-17 07:20:00+00:00,228.0948,2.19,12.65,47.84626,-54.09684
2018-01-17 07:30:00+00:00,237.9331,2.19,12.65,47.84626,-54.09684
2018-01-17 07:40:00+00:00,247.1781,2.2,12.65,47.84626,-54.09684
2018-01-17 07:50:00+00:00,252.668,2.2,12.65,47.84626,-54.09684
2018-01-17 08:00:00+00:00,258.9181,2.2,12.65,47.84626,-54.09684
2018-01-17 08:10:00+00:00,266.6531,2.2,12.57,47.84626,-54.09684
2018-01-17 08:20:00+00:00,269.1181,2.2,12.65,47.84626,-54.09684
2018-01-17 08:30:00+00:00,267.0298,2.16,12.65,47.84626,-54.09684
2018-01-17 08:40:00+00:00,267.3247,2.2,12.65,47.84626,-54.09684
2018-01-17 08:50:00+00:00,273.8063,2.2,12.65,47.84626,-54.09684
2018-01-17 09:00:00+00:00,274.5181,2.2,12.57,47.84626,-54.09684
2018-01-17 09:10:00+00:00,271.3715,2.2,12.57,47.84626,-54.09684
2018-01-17 09:20:00+00:00,278.4964,2.18,12.65,47.84626,-54.09684
2018-01-17 09:30:00+00:00,288.0913,2.2,12.65,47.84626,-54.09684
2018-01-17 09:40:00+00:00,290.8231,2.2,12.65,47.84626,-54.09684
2018-01-17 09:50:00+00:00,293.8464,2.23,12.65,47.84626,-54.09684
2018-01-17 10:00:00+00:00,303.4797,2.27,12.57,47.84626,-54.09684
2018-01-17 10:10:00+00:00,303.9064,2.25,12.57,47.84626,-54.09684
2018-01-17 10:20:00+00:00,305.948,2.25,12.65,47.84626,-54.09684
2018-01-17 10:30:00+00:00,317.1763,2.28,12.65,47.84626,-54.09684
2018-01-17 10:40:00+00:00,327.1562,2.3,12.65,47.84626,-54.09684
2018-01-17 10:50:00+00:00,328.1846,2.3,12.65,47.84626,-54.09684
2018-01-17 11:00:00+00:00,335.6613,2.3,12.57,47.84626,-54.09684
2018-01-17 11:10:00+00:00,344.5129,2.3,12.57,47.84626,-54.09684
2018-01-17 11:20:00+00:00,349.9496,2.3,12.65,47.84626,-54.09684
2018-01-17 11:30:00+00:00,359.843,2.3,12.65,47.84626,-54.09684
2018-01-17 11:40:00+00:00,366.7296,2.3,12.65,47.84626,-54.09684
2018-01-17 11:50:00+00:00,366.3112,2.3,12.65,47.84626,-54.09684
2018-01-17 12:00:00+00:00,360.0446,2.3,12.65,47.84626,-54.09684
2018-01-17 12:10:00+00:00,365.3879,2.3,12.57,47.84626,-54.09684
2018-01-17 12:20:00+00:00,370.8747,2.2,12.65,47.84626,-54.09684
2018-01-17 12:30:00+00:00,357.4229,2.1,12.65,47.84626,-54.09684
2018-01-17 12:40:00+00:00,353.8863,2.09,12.73,47.84626,-54.09684
2018-01-17 12:50:00+00:00,360.8463,2.1,12.73,47.84626,-54.09684
2018-01-17 13:00:00+00:00,348.593,2.1,12.65,47.84626,-54.09684
2018-01-17 13:10:00+00:00,328.8913,2.1,12.65,47.84626,-54.09684
2018-01-17 13:20:00+00:00,336.8964,2.15,12.73,47.84626,-54.09684
2018-01-17 13:30:00+00:00,342.0763,2.18,12.81,47.84626,-54.09684
2018-01-17 13:40:00+00:00,327.223,2.2,12.89,47.84626,-54.09684
2018-01-17 13:50:00+00:00,316.9514,2.2,12.89,47.84626,-54.09684
2018-01-17 14:00:00+00:00,324.9847,2.22,12.81,47.84626,-54.09684
2018-01-17 14:10:00+00:00,319.3396,2.27,12.81,47.84626,-54.09684
2018-01-17 14:20:00+00:00,302.7063,2.26,12.89,47.84626,-54.09684
2018-01-17 14:30:00+00:00,302.0896,2.28,12.97,47.84626,-54.09684
2018-01-17 14:40:00+00:00,298.0297,2.27,12.97,47.84626,-54.09684
2018-01-17 14:50:00+00:00,281.9097,2.2,12.97,47.84626,-54.09684
2018-01-17 15:00:00+00:00,267.0081,2.2,12.89,47.84626,-54.09684
2018-01-17 15:10:00+00:00,273.0081,2.2,12.81,47.84626,-54.09684
2018-01-17 15:20:00+00:00,269.5681,2.26,12.97,47.84626,-54.09684
2018-01-17 15:30:00+00:00,252.6081,2.29,12.97,47.84626,-54.09684
2018-01-17 15:40:00+00:00,245.7847,2.29,13.05,47.84626,-54.09684
2018-01-17 15:50:00+00:00,245.3381,2.29,13.05,47.84626,-54.09684
2018-01-17 16:00:00+00:00,233.5347,2.3,12.97,47.84626,-54.09684
2018-01-17 16:10:00+00:00,220.8365,2.2,12.81,47.84626,-54.09684
2018-01-17 16:20:00+00:00,211.1131,2.2,12.89,47.84626,-54.09684
2018-01-17 16:30:00+00:00,199.1614,2.24,12.97,47.84626,-54.09684
2018-01-17 16:40:00+00:00,191.9398,2.3,13.05,47.84626,-54.09684
2018-01-17 16:50:00+00:00,191.0998,2.3,13.05,47.84626,-54.09684
2018-01-17 17:00:00+00:00,180.7747,2.3,12.97,47.84626,-54.09684
2018-01-17 17:10:00+00:00,172.4815,2.3,12.97,47.84626,-54.09684
2018-01-17 17:20:00+00:00,174.9814,2.3,13.13,47.84626,-54.09684
2018-01-17 17:30:00+00:00,174.0715,2.3,13.21,47.84626,-54.09684
2018-01-17 17:40:00+00:00,177.0665,2.2,13.29,47.84626,-54.09684
2018-01-17 17:50:00+00:00,187.0482,2.2,13.37,47.84626,-54.09684
2018-01-17 18:00:00+00:00,185.7948,2.1,13.29,47.84626,-54.09684
2018-01-17 18:10:00+00:00,183.9098,2.0,13.13,47.84626,-54.09684
2018-01-17 18:20:00+00:00,188.1064,1.94,13.21,47.84626,-54.09684
2018-01-17 18:30:00+00:00,187.4882,1.91,13.13,47.84626,-54.09684
2018-01-17 18:40:00+00:00,187.8981,1.9,13.21,47.84626,-54.09684
2018-01-17 18:50:00+00:00,185.8415,1.93,13.13,47.84626,-54.09684
2018-01-17 19:00:00+00:00,185.1465,2.03,13.05,47.84626,-54.09684
2018-01-17 19:10:00+00:00,192.1081,2.1,12.97,47.84626,-54.09684
2018-01-17 19:20:00+00:00,203.8282,2.1,13.05,47.84626,-54.09684
2018-01-17 19:30:00+00:00,207.6297,2.09,12.97,47.84626,-54.09684
2018-01-17 19:40:00+00:00,203.1497,2.01,12.97,47.84626,-54.09684
2018-01-17 19:50:00+00:00,211.3831,2.0,12.97,47.84626,-54.09684
2018-01-17 20:00:00+00:00,222.0015,2.0,12.89,47.84626,-54.09684
2018-01-17 20:10:00+00:00,220.1815,2.0,12.81,47.84626,-54.09684
2018-01-17 20:20:00+00:00,218.0165,1.98,12.89,47.84626,-54.09684
2018-01-17 20:30:00+00:00,222.5648,1.95,12.89,47.84626,-54.09684
2018-01-17 20:40:00+00:00,224.6031,2.08,12.89,47.84626,-54.09684
2018-01-17 20:50:00+00:00,227.1948,2.1,12.89,47.84626,-54.09684
2018-01-17 21:00:00+00:00,235.4514,2.09,12.81,47.84626,-54.09684
2018-01-17 21:10:00+00:00,241.6214,2.0,12.73,47.84626,-54.09684
2018-01-17 21:20:00+00:00,245.9764,1.9,12.81,47.84626,-54.09684
2018-01-17 21:30:00+00:00,249.3181,1.9,12.81,47.84626,-54.09684
2018-01-17 21:40:00+00:00,260.3564,1.9,12.81,47.84626,-54.09684
2018-01-17 21:50:00+00:00,269.9464,1.9,12.81,47.84626,-54.09684
2018-01-17 22:00:00+00:00,279.7197,1.84,12.73,47.84626,-54.09684
2018-01-17 22:10:00+00:00,285.4413,1.8,12.65,47.84626,-54.09684
2018-01-17 22:20:00+00:00,290.5964,1.87,12.73,47.84626,-54.09684
2018-01-17 22:30:00+00:00,294.9498,1.98,12.73,47.84626,-54.09684
2018-01-17 22:40:00+00:00,304.0995,2.04,12.81,47.84626,-54.09684
2018-01-17 22:50:00+00:00,310.0297,2.06,12.81,47.84626,-54.09684
2018-01-17 23:00:00+00:00,312.3097,2.07,12.73,47.84626,-54.09684
2018-01-17 23:10:00+00:00,321.063,2.09,12.65,47.84626,-54.09684
2018-01-17 23:20:00+00:00,332.778,2.1,12.73,47.84626,-54.09684
2018-01-17 23:30:00+00:00,331.2496,2.1,12.73,47.84626,-54.09684
2018-01-17 23:40:00+00:00,332.6413,2.1,12.73,47.84626,-54.09684
2018-01-17 23:50:00+00:00,346.6529,2.1,12.73,47.84626,-54.09684
